#timestamp,LO_Frequency,Hit,StdDev 
1567072815.2,286046996.3,N
1567072835.1,286046996.3,N
1567072836.0,286046996.3,N
1567072855.8,286046993.8,N
1567072875.6,286046994.4,N
1567072895.5,286046993.8,N
1567072915.3,286046993.9,N
1567072935.1,286046990.6,Y
1567072955.9,286046993.8,P
1567072975.7,286046993.9,P
1567072995.6,286046993.3,P
1567073015.4,286046991.9,Y
1567073035.2,286046997.6,P
1567073055.1,286046995.2,N
1567073056.0,286046995.2,P
1567073075.8,286046991.7,Y
1567073095.6,286046992.9,P
1567073115.5,286046985.4,P
1567073135.3,286046986.7,P
1567073155.2,286046986.1,Y
1567073175.9,286046995.6,P
1567073195.7,286046994.3,N
1567073215.6,286046986.9,P
1567073235.4,286046986.3,Y
1567073255.3,286046991.3,P
1567073275.1,286046988.1,P
1567073276.0,286046988.1,P
1567073295.8,286046982.3,Y
1567073315.7,286046990.4,P
1567073335.5,286046991.5,P
1567073355.3,286046993.1,P
1567073375.2,286046992.7,Y
1567073395.0,286047000.5,P
1567073395.9,286047000.5,N
1567073415.8,286047004.0,N
1567073435.6,286047003.0,N
1567073455.4,286047007.1,N
1567073475.3,286047010.7,N
1567073495.1,286047009.1,N
1567073515.9,286047006.6,N
1567073535.7,286047008.3,N
1567073555.5,286047008.1,N
1567073575.4,286047007.8,N
1567073595.2,286047011.8,N
1567073615.0,286047009.8,N
1567073615.9,286047009.8,N
1567073635.8,286047007.9,N
1567073655.6,286047010.1,N
1567073675.5,286047009.4,N
1567073695.3,286047009.5,N
1567073715.1,286047008.4,N
1567073735.9,286047004.9,N
1567073755.7,286047006.7,N
1567073775.5,286047005.1,N
1567073795.4,286047007.1,N
1567073815.2,286047005.9,N
1567073835.0,286047003.8,N
1567073836.0,286047003.8,N
1567073855.8,286047008.7,N
1567073875.6,286047004.6,N
1567073895.5,286047005.3,N
1567073915.3,286047001.3,N
1567073935.1,286047003.4,N
1567073955.9,286047007.5,N
1567073975.7,286047006.4,N
1567073995.6,286047001.3,N
1567074015.4,286047003.5,N
1567074035.2,286047003.7,N
1567074055.1,286047002.8,N
1567074056.0,286047002.8,N
1567074075.8,286046999.7,N
1567074095.6,286047000.6,N
1567074115.5,286046998.7,N
1567074135.3,286046996.9,N
1567074155.2,286046999.2,N
1567074175.9,286046997.1,N
1567074195.7,286046996.7,N
1567074215.6,286046995.1,N
1567074235.4,286046995.5,N
1567074255.3,286046992.2,N
1567074275.1,286046991.7,N
1567074276.0,286046991.7,N
1567074295.8,286046993.8,N
1567074315.7,286046994.8,N
1567074335.5,286046990.7,N
1567074355.3,286046991.5,N
1567074375.2,286046991.5,N
1567074395.0,286046987.3,N
1567074395.9,286046987.3,N
1567074415.8,286046987.7,N
1567074435.6,286046986.0,N
1567074455.4,286046986.6,N
1567074475.3,286046988.4,N
1567074495.1,286046985.3,N
1567074515.9,286046988.4,N
1567074535.7,286046987.8,N
1567074555.5,286046987.5,N
1567074575.4,286046985.8,N
1567074595.2,286046985.8,N
1567074615.0,286046986.7,N
1567074615.9,286046986.7,N
1567074635.8,286046985.0,Y
1567074655.6,286046994.3,P
1567074675.5,286046994.6,P
1567074695.3,286046991.8,P
1567074715.1,286046992.2,Y
1567074735.9,286047000.4,P
1567074755.7,286047000.5,N
1567074775.5,286046999.0,N
1567074795.4,286046995.3,N
1567074815.2,286046995.7,N
1567074835.1,286046995.1,N
1567074836.0,286046995.1,N
1567074855.8,286046990.8,Y
1567074875.6,286046991.1,P
1567074895.5,286046990.4,P
1567074915.3,286046991.4,P
1567074935.2,286046991.0,Y
1567074955.9,286046997.9,P
1567074975.7,286046997.5,N
1567074995.6,286046990.3,P
1567075015.4,286046988.7,Y
1567075035.2,286046996.2,P
1567075055.1,286046993.0,P
1567075056.0,286046993.0,P
1567075075.8,286046988.8,Y
1567075095.7,286046996.3,P
1567075115.5,286046989.1,P
1567075135.3,286046985.2,P
1567075155.2,286046985.2,Y
1567075175.0,286046989.6,P
1567075175.9,286046989.6,P
1567075195.8,286046988.1,P
1567075215.6,286046984.9,Y
1567075235.4,286046991.1,P
1567075255.3,286046991.4,P
1567075275.1,286046987.6,P
1567075295.8,286046993.0,Y
1567075315.7,286047001.4,P
1567075335.5,286046996.9,N
1567075355.4,286046993.1,N
1567075375.2,286046986.9,Y
1567075395.0,286046995.6,P
1567075395.9,286046995.6,P
1567075415.8,286046998.8,P
1567075435.6,286046999.7,N
1567075455.5,286047003.1,N
1567075475.3,286047007.6,N
1567075495.1,286047008.8,N
1567075515.9,286047001.9,N
1567075535.7,286046998.5,N
1567075555.5,286047002.5,N
1567075575.4,286046998.1,N
1567075595.2,286046995.5,N
1567075615.0,286046992.9,N
1567075616.0,286046992.9,N
1567075635.8,286046989.1,N
1567075655.6,286046986.9,N
1567075675.5,286046990.4,N
1567075695.3,286046990.5,N
1567075715.1,286046991.5,N
1567075735.9,286046996.1,N
1567075755.7,286046996.7,N
1567075775.6,286046999.9,N
1567075795.4,286047001.8,N
1567075815.2,286047002.1,N
1567075835.1,286047001.5,N
1567075836.0,286047001.5,N
1567075855.8,286047003.8,N
1567075875.6,286047006.9,N
1567075895.5,286047007.6,N
1567075915.3,286047002.8,N
1567075935.2,286047000.6,N
1567075955.9,286046996.2,N
1567075975.7,286046989.0,N
1567075995.6,286046986.0,N
1567076015.4,286046986.5,N
1567076035.2,286046985.5,N
1567076055.1,286046985.3,N
1567076056.0,286046985.3,N
1567076075.8,286046987.5,N
1567076095.7,286046989.1,N
1567076115.5,286046986.9,N
1567076135.3,286046988.9,N
1567076155.2,286046989.3,N
1567076175.9,286046989.0,N
1567076195.7,286046989.9,N
1567076215.6,286046988.7,N
1567076235.4,286046993.0,N
1567076255.3,286046988.7,N
1567076275.1,286046989.3,N
1567076276.0,286046989.3,N
1567076295.8,286046991.6,N
1567076315.7,286046991.6,N
1567076335.5,286046987.5,N
1567076355.3,286046988.5,N
1567076375.2,286046988.7,N
1567076395.0,286046989.6,N
1567076395.9,286046989.6,N
